Location: Biltmore Gardens
(41.6070°N, 83.4666°W)
Time: 14:29:27
(UTC+00:00)

Cosmos 1464 Rocket - Pass Details

Date: 14 July 2020
Orbit: 952 x 1002 km, 82.9° (Epoch: 04 August)

Event Time Altitude Azimuth Distance (km) Brightness Sun altitude
Exits shadow 08:58:17 - 193° (SSW) 2,841 5.9 -11.9°
Reaches altitude 10° 08:58:29 10° 193° (SSW) 2,766 5.9 -11.9°
Maximum altitude 09:04:50 74° 278° (W) 1,043 4.1 -11.0°
Drops below altitude 10° 09:11:13 10° 4° (N) 2,771 7.1 -10.1°
Sets 09:13:45 0° 6° (N) 3,719 7.8 -9.8°
